• In Hungary
  • List of Countries
  • For 7 days
  • Water Temperature
  • Satellite Maps
  • Weather Map
  • News
  • Weather Widgets
  • user-avatar
    Login

    Hourly Weather Polesie

    Today, 16 January, Tuesday

    Time Temperature Precipitation Wind Pressure Humidity
    00:00 -8°C° 0 mm 4 mps 738 mmHg 56%
    01:00 -8°C° 0 mm 3 mps 737 mmHg 58%
    02:00 -9°C° 0 mm 4 mps 736 mmHg 59%
    03:00 -9°C° 0 mm 4 mps 736 mmHg 60%
    04:00 -8°C° 0 mm 5 mps 735 mmHg 61%
    05:00 -8°C° 0 mm 5 mps 734 mmHg 62%
    06:00 -8°C° 0 mm 5 mps 733 mmHg 63%
    07:00 -8°C° 0 mm 5 mps 732 mmHg 64%
    08:00 -7°C° 0 mm 5 mps 731 mmHg 62%
    09:00 -7°C° 0 mm 5 mps 731 mmHg 60%
    10:00 -6°C° 0 mm 5 mps 730 mmHg 58%
    11:00 -5°C° 0.1 mm 5 mps 729 mmHg 58%
    12:00 -4°C° 0.1 mm 5 mps 728 mmHg 58%
    13:00 -2°C° 0.1 mm 5 mps 727 mmHg 58%
    14:00 -4°C° 0.1 mm 5 mps 726 mmHg 63%
    15:00 -4°C° 0.1 mm 5 mps 726 mmHg 68%
    16:00 -4°C° 0.1 mm 5 mps 725 mmHg 73%
    17:00 -4°C° 0.1 mm 5 mps 724 mmHg 76%
    18:00 -4°C° 0.1 mm 5 mps 723 mmHg 79%
    19:00 -4°C° 0.1 mm 5 mps 722 mmHg 82%
    20:00 -3°C° 0.1 mm 6 mps 722 mmHg 81%
    21:00 -2°C° 0.1 mm 7 mps 721 mmHg 79%
    22:00 -1°C° 0.1 mm 8 mps 721 mmHg 78%
    23:00 -1°C° 0.1 mm 8 mps 721 mmHg 76%

    Tomorrow, 17 January, Wednesday

    Time Temperature Precipitation Wind Pressure Humidity
    00:00 -1°C° 0.1 mm 8 mps 721 mmHg 74%
    01:00 -1°C° 0.1 mm 8 mps 721 mmHg 73%
    02:00 -2°C° 0 mm 7 mps 721 mmHg 72%
    03:00 -2°C° 0 mm 7 mps 721 mmHg 72%
    04:00 -3°C° 0 mm 6 mps 721 mmHg 72%
    05:00 -3°C° 0 mm 6 mps 721 mmHg 74%
    06:00 -2°C° 0 mm 5 mps 721 mmHg 76%
    07:00 -2°C° 0 mm 5 mps 722 mmHg 78%
    08:00 -2°C° 0 mm 5 mps 722 mmHg 77%
    09:00 -1°C° 0 mm 5 mps 722 mmHg 75%
    10:00 -1°C° 0 mm 4 mps 722 mmHg 74%
    11:00 -1°C° 0 mm 4 mps 722 mmHg 73%
    12:00 0°C° 0 mm 4 mps 722 mmHg 71%
    13:00 0°C° 0 mm 4 mps 722 mmHg 70%
    14:00 0°C° 0.2 mm 4 mps 722 mmHg 73%
    15:00 -1°C° 0.2 mm 4 mps 723 mmHg 76%
    16:00 -2°C° 0.2 mm 4 mps 723 mmHg 80%
    17:00 -2°C° 0.1 mm 5 mps 724 mmHg 79%
    18:00 -2°C° 0.1 mm 5 mps 724 mmHg 78%
    19:00 -4°C° 0.1 mm 5 mps 725 mmHg 77%
    20:00 -4°C° 0.1 mm 5 mps 725 mmHg 77%
    21:00 -4°C° 0.1 mm 5 mps 726 mmHg 76%
    22:00 -4°C° 0.1 mm 6 mps 726 mmHg 76%
    23:00 -4°C° 0.1 mm 5 mps 726 mmHg 77%

    Day after tomorrow, 18 January, Thursday

    Time Temperature Precipitation Wind Pressure Humidity
    00:00 -4°C° 0.1 mm 5 mps 726 mmHg 78%
    01:00 -5°C° 0.1 mm 5 mps 726 mmHg 80%
    02:00 -4°C° 0.2 mm 5 mps 726 mmHg 82%
    03:00 -4°C° 0.2 mm 5 mps 727 mmHg 84%
    04:00 -4°C° 0.2 mm 5 mps 727 mmHg 86%
    05:00 -4°C° 0.1 mm 6 mps 727 mmHg 85%
    06:00 -4°C° 0.1 mm 6 mps 728 mmHg 85%
    07:00 -4°C° 0.1 mm 6 mps 729 mmHg 84%
    08:00 -4°C° 0 mm 6 mps 729 mmHg 82%
    09:00 -4°C° 0 mm 5 mps 729 mmHg 80%
    10:00 -2°C° 0 mm 5 mps 730 mmHg 78%
    11:00 -2°C° 0 mm 5 mps 729 mmHg 76%
    12:00 -2°C° 0 mm 5 mps 729 mmHg 74%
    13:00 -1°C° 0 mm 5 mps 728 mmHg 72%
    14:00 -2°C° 0.3 mm 5 mps 727 mmHg 75%
    15:00 -2°C° 0.3 mm 5 mps 726 mmHg 78%
    16:00 -2°C° 0.3 mm 5 mps 725 mmHg 81%
    17:00 -3°C° 1 mm 6 mps 723 mmHg 83%
    18:00 -2°C° 1 mm 6 mps 722 mmHg 85%
    19:00 -2°C° 1 mm 6 mps 721 mmHg 88%
    20:00 -1°C° 0.9 mm 7 mps 721 mmHg 86%
    21:00 -1°C° 0.9 mm 7 mps 720 mmHg 84%
    22:00 0°C° 0.9 mm 7 mps 720 mmHg 83%
    23:00 -1°C° 0.1 mm 8 mps 720 mmHg 80%

    19 January, Friday

    Time Temperature Precipitation Wind Pressure Humidity
    00:00 -1°C° 0.1 mm 9 mps 720 mmHg 77%
    01:00 -3°C° 0.1 mm 10 mps 720 mmHg 74%
    02:00 -3°C° 0.1 mm 10 mps 721 mmHg 75%
    03:00 -3°C° 0.1 mm 10 mps 721 mmHg 76%
    04:00 -4°C° 0.1 mm 10 mps 722 mmHg 78%
    05:00 -4°C° 0.1 mm 9 mps 723 mmHg 79%
    06:00 -4°C° 0.1 mm 9 mps 724 mmHg 80%
    07:00 -4°C° 0.1 mm 8 mps 724 mmHg 81%
    08:00 -4°C° 0.1 mm 8 mps 725 mmHg 81%
    09:00 -3°C° 0.1 mm 7 mps 726 mmHg 81%
    10:00 -3°C° 0.1 mm 7 mps 727 mmHg 81%
    11:00 -3°C° 0 mm 6 mps 728 mmHg 80%
    12:00 -2°C° 0 mm 5 mps 728 mmHg 80%
    13:00 -2°C° 0 mm 5 mps 729 mmHg 79%
    14:00 -2°C° 0 mm 4 mps 729 mmHg 82%
    15:00 -2°C° 0 mm 3 mps 729 mmHg 85%
    16:00 -2°C° 0 mm 2 mps 730 mmHg 88%
    17:00 -1°C° 0 mm 1 mps 730 mmHg 89%
    18:00 -1°C° 0 mm 1 mps 731 mmHg 90%
    19:00 -2°C° 0 mm 1 mps 731 mmHg 92%
    20:00 -2°C° 0 mm 1 mps 731 mmHg 91%
    21:00 -2°C° 0 mm 1 mps 732 mmHg 91%
    22:00 -2°C° 0 mm 1 mps 732 mmHg 91%
    23:00 -2°C° 0 mm 1 mps 732 mmHg 91%

    20 January, Saturday

    Time Temperature Precipitation Wind Pressure Humidity
    00:00 -2°C° 0 mm 1 mps 733 mmHg 91%
    01:00 -2°C° 0 mm 1 mps 733 mmHg 90%
    02:00 -2°C° 0 mm 1 mps 733 mmHg 90%
    03:00 -3°C° 0 mm 1 mps 732 mmHg 90%
    04:00 -3°C° 0 mm 1 mps 732 mmHg 90%
    05:00 -3°C° 0 mm 1 mps 732 mmHg 90%
    06:00 -5°C° 0 mm 2 mps 733 mmHg 91%
    07:00 -5°C° 0 mm 2 mps 733 mmHg 91%
    08:00 -4°C° 0 mm 2 mps 733 mmHg 89%
    09:00 -4°C° 0 mm 2 mps 733 mmHg 86%
    10:00 -4°C° 0 mm 3 mps 733 mmHg 84%
    11:00 -4°C° 0 mm 3 mps 733 mmHg 83%
    12:00 -2°C° 0 mm 3 mps 733 mmHg 81%
    13:00 -2°C° 0 mm 3 mps 733 mmHg 79%
    14:00 -2°C° 0 mm 3 mps 733 mmHg 82%
    15:00 -4°C° 0 mm 3 mps 733 mmHg 84%
    16:00 -4°C° 0 mm 3 mps 733 mmHg 87%
    17:00 -4°C° 0 mm 3 mps 733 mmHg 88%
    18:00 -5°C° 0 mm 3 mps 733 mmHg 89%
    19:00 -5°C° 0 mm 3 mps 733 mmHg 90%
    20:00 -5°C° 0 mm 3 mps 734 mmHg 90%
    21:00 -5°C° 0 mm 3 mps 734 mmHg 91%
    22:00 -5°C° 0 mm 3 mps 734 mmHg 92%
    23:00 -5°C° 0.1 mm 3 mps 734 mmHg 92%

    21 January, Sunday

    Time Temperature Precipitation Wind Pressure Humidity
    00:00 -5°C° 0.1 mm 3 mps 734 mmHg 92%
    01:00 -5°C° 0.1 mm 4 mps 733 mmHg 93%
    02:00 -5°C° 0.3 mm 4 mps 733 mmHg 93%
    03:00 -5°C° 0.3 mm 4 mps 733 mmHg 92%
    04:00 -5°C° 0.3 mm 4 mps 733 mmHg 92%
    05:00 -6°C° 0.4 mm 5 mps 733 mmHg 92%
    06:00 -6°C° 0.4 mm 5 mps 733 mmHg 92%
    07:00 -6°C° 0.4 mm 5 mps 733 mmHg 92%
    08:00 -6°C° 0.5 mm 5 mps 733 mmHg 91%
    09:00 -6°C° 0.5 mm 6 mps 733 mmHg 91%
    10:00 -6°C° 0.5 mm 6 mps 732 mmHg 91%
    11:00 -6°C° 0.5 mm 6 mps 732 mmHg 91%
    12:00 -6°C° 0.5 mm 6 mps 732 mmHg 91%
    13:00 -6°C° 0.5 mm 6 mps 732 mmHg 90%
    14:00 -6°C° 0.5 mm 6 mps 732 mmHg 91%
    15:00 -6°C° 0.5 mm 6 mps 732 mmHg 91%
    16:00 -8°C° 0.5 mm 6 mps 732 mmHg 91%
    17:00 -8°C° 0.4 mm 6 mps 733 mmHg 91%
    18:00 -8°C° 0.4 mm 6 mps 733 mmHg 91%
    19:00 -8°C° 0.4 mm 6 mps 733 mmHg 91%
    20:00 -8°C° 0.3 mm 6 mps 733 mmHg 91%
    21:00 -8°C° 0.3 mm 6 mps 733 mmHg 90%
    22:00 -8°C° 0.3 mm 6 mps 734 mmHg 90%
    23:00 -9°C° 0.2 mm 6 mps 734 mmHg 90%
    Show more